| time (UTC) | temp C | wind direction | speed KPH | gust KPH | rain 1hr cm | rain 24hr cm | rain mn cm | humidity % | barometer mb |
| 20260507120057 | 18 | 82 | 1.6 | 14.5 | 0.00 | 0.00 | 0.00 | 74 | 1013.6 |
| 20260507115541 | 17 | 20 | 4.8 | 14.5 | 0.00 | 0.00 | 0.00 | 73 | 1013.6 |
| 20260507115044 | 17 | 11 | 3.2 | 9.7 | 0.00 | 0.00 | 0.00 | 76 | 1013.5 |
| 20260507114556 | 17 | 5 | 1.6 | 11.3 | 0.00 | 0.00 | 0.00 | 78 | 1013.5 |
| 20260507114044 | 17 | 303 | 3.2 | 11.3 | 0.00 | 0.00 | 0.00 | 78 | 1013.6 |
| 20260507113542 | 17 | 55 | 3.2 | 16.1 | 0.00 | 0.00 | 0.00 | 76 | 1013.5 |
| 20260507113050 | 17 | 9 | 4.8 | 16.1 | 0.00 | 0.00 | 0.00 | 76 | 1013.4 |
| 20260507112542 | 18 | 340 | 3.2 | 9.7 | 0.00 | 0.00 | 0.00 | 75 | 1013.5 |
| 20260507112045 | 18 | 12 | 1.6 | 9.7 | 0.00 | 0.00 | 0.00 | 76 | 1013.4 |
| 20260507111553 | 17 | 45 | 3.2 | 9.7 | 0.00 | 0.00 | 0.00 | 77 | 1013.4 |
| 20260507111045 | 18 | 26 | 1.6 | 9.7 | 0.00 | 0.00 | 0.00 | 75 | 1013.4 |
| 20260507110542 | 18 | 24 | 3.2 | 11.3 | 0.00 | 0.00 | 0.00 | 76 | 1013.4 |
| 20260507110054 | 17 | 0 | 3.2 | 12.9 | 0.00 | 0.00 | 0.00 | 78 | 1013.4 |
| 20260507105542 | 18 | 17 | 3.2 | 12.9 | 0.00 | 0.00 | 0.00 | 77 | 1013.5 |
| 20260507105044 | 18 | 350 | 3.2 | 12.9 | 0.00 | 0.00 | 0.00 | 79 | 1013.6 |
| 20260507104556 | 17 | 9 | 1.6 | 12.9 | 0.00 | 0.00 | 0.00 | 81 | 1013.6 |
| 20260507104045 | 17 | 9 | 4.8 | 12.9 | 0.00 | 0.00 | 0.00 | 80 | 1013.7 |
| 20260507103543 | 17 | 9 | 1.6 | 16.1 | 0.00 | 0.00 | 0.00 | 80 | 1013.7 |
| 20260507103050 | 17 | 28 | 3.2 | 16.1 | 0.00 | 0.00 | 0.00 | 81 | 1013.7 |
| 20260507102542 | 17 | 317 | 3.2 | 12.9 | 0.00 | 0.00 | 0.00 | 82 | 1013.6 |
| 20260507102042 | 17 | 5 | 3.2 | 14.5 | 0.00 | 0.00 | 0.00 | 82 | 1013.6 |
| 20260507101551 | 17 | 27 | 3.2 | 14.5 | 0.00 | 0.00 | 0.00 | 83 | 1013.7 |
| 20260507101047 | 17 | 30 | 1.6 | 14.5 | 0.00 | 0.00 | 0.00 | 84 | 1013.7 |
| 20260507100541 | 17 | 18 | 3.2 | 14.5 | 0.00 | 0.00 | 0.00 | 84 | 1013.6 |
| 20260507100052 | 17 | 47 | 3.2 | 14.5 | 0.00 | 0.00 | 0.00 | 84 | 1013.5 |
| 20260507095545 | 18 | 311 | 3.2 | 12.9 | 0.00 | 0.00 | 0.00 | 84 | 1013.5 |
| 20260507095044 | 17 | 36 | 3.2 | 12.9 | 0.00 | 0.00 | 0.00 | 84 | 1013.6 |
| 20260507094549 | 17 | 0 | 3.2 | 12.9 | 0.00 | 0.00 | 0.00 | 84 | 1013.4 |
| 20260507094045 | 17 | 337 | 1.6 | 12.9 | 0.00 | 0.00 | 0.00 | 82 | 1013.5 |
| 20260507093542 | 17 | 0 | 3.2 | 12.9 | 0.00 | 0.00 | 0.00 | 82 | 1013.7 |
| 20260507093052 | 17 | 334 | 1.6 | 11.3 | 0.00 | 0.00 | 0.00 | 82 | 1013.6 |
| 20260507092542 | 17 | 315 | 3.2 | 11.3 | 0.00 | 0.00 | 0.00 | 83 | 1013.6 |
| 20260507092042 | 17 | 355 | 3.2 | 11.3 | 0.00 | 0.00 | 0.00 | 83 | 1013.7 |
| 20260507091557 | 17 | 341 | 1.6 | 11.3 | 0.00 | 0.00 | 0.00 | 84 | 1013.7 |
| 20260507091042 | 17 | 340 | 3.2 | 9.7 | 0.00 | 0.00 | 0.00 | 83 | 1013.8 |
| 20260507090541 | 17 | 0 | 1.6 | 11.3 | 0.00 | 0.00 | 0.00 | 84 | 1013.8 |
| 20260507090050 | 17 | 344 | 3.2 | 11.3 | 0.00 | 0.00 | 0.00 | 84 | 1013.7 |
| 20260507085542 | 17 | 346 | 1.6 | 9.7 | 0.00 | 0.00 | 0.00 | 84 | 1013.8 |
| 20260507085047 | 17 | 0 | 1.6 | 9.7 | 0.00 | 0.00 | 0.00 | 85 | 1013.7 |
| 20260507084547 | 16 | 346 | 3.2 | 9.7 | 0.00 | 0.00 | 0.00 | 85 | 1013.8 |
| 20260507084044 | 17 | 329 | 1.6 | 9.7 | 0.00 | 0.00 | 0.00 | 85 | 1013.8 |
| 20260507083543 | 17 | 20 | 3.2 | 12.9 | 0.00 | 0.00 | 0.00 | 84 | 1013.6 |
| 20260507083052 | 17 | 351 | 4.8 | 14.5 | 0.00 | 0.00 | 0.00 | 84 | 1013.7 |
| 20260507082548 | 16 | 355 | 4.8 | 14.5 | 0.00 | 0.00 | 0.00 | 84 | 1013.6 |
| 20260507082041 | 17 | 346 | 1.6 | 14.5 | 0.00 | 0.00 | 0.00 | 84 | 1013.7 |
| 20260507081552 | 17 | 336 | 3.2 | 12.9 | 0.00 | 0.00 | 0.00 | 84 | 1013.5 |
| 20260507081044 | 17 | 333 | 3.2 | 12.9 | 0.00 | 0.00 | 0.00 | 83 | 1013.5 |
| 20260507080543 | 17 | 5 | 3.2 | 12.9 | 0.00 | 0.00 | 0.00 | 84 | 1013.5 |
| 20260507080056 | 16 | 0 | 3.2 | 12.9 | 0.00 | 0.00 | 0.00 | 85 | 1013.4 |
| 20260507075542 | 16 | 343 | 3.2 | 11.3 | 0.00 | 0.00 | 0.00 | 85 | 1013.3 |
| 20260507075048 | 17 | 333 | 1.6 | 12.9 | 0.00 | 0.00 | 0.00 | 85 | 1013.3 |
| 20260507074550 | 17 | 336 | 1.6 | 12.9 | 0.00 | 0.00 | 0.00 | 85 | 1013.3 |
| 20260507074044 | 17 | 348 | 1.6 | 9.7 | 0.00 | 0.00 | 0.00 | 85 | 1013.2 |
| 20260507073545 | 17 | 342 | 1.6 | 14.5 | 0.00 | 0.00 | 0.00 | 85 | 1013.2 |
| 20260507073055 | 16 | 355 | 1.6 | 14.5 | 0.00 | 0.00 | 0.00 | 84 | 1013.2 |
| 20260507072542 | 16 | 329 | 4.8 | 14.5 | 0.00 | 0.00 | 0.00 | 84 | 1013.2 |
| 20260507072045 | 16 | 0 | 4.8 | 14.5 | 0.00 | 0.00 | 0.00 | 84 | 1013.2 |
| 20260507071552 | 17 | 342 | 1.6 | 9.7 | 0.00 | 0.00 | 0.00 | 85 | 1013.3 |
| 20260507071044 | 17 | 319 | 1.6 | 9.7 | 0.00 | 0.00 | 0.00 | 85 | 1013.4 |
| 20260507070545 | 17 | 23 | 3.2 | 14.5 | 0.00 | 0.00 | 0.00 | 85 | 1013.3 |
| 20260507070058 | 16 | 309 | 4.8 | 14.5 | 0.00 | 0.00 | 0.00 | 85 | 1013.3 |
| 20260507065547 | 16 | 299 | 4.8 | 11.3 | 0.00 | 0.00 | 0.00 | 85 | 1013.3 |
| 20260507065041 | 16 | 298 | 1.6 | 9.7 | 0.00 | 0.00 | 0.00 | 86 | 1013.2 |
| 20260507064552 | 16 | 337 | 3.2 | 9.7 | 0.00 | 0.00 | 0.00 | 86 | 1013.3 |
| 20260507064042 | 16 | 329 | 1.6 | 6.4 | 0.00 | 0.00 | 0.00 | 86 | 1013.2 |
| 20260507063545 | 16 | 331 | 1.6 | 8.0 | 0.00 | 0.00 | 0.00 | 86 | 1013.2 |
| 20260507063056 | 16 | 295 | 1.6 | 8.0 | 0.00 | 0.00 | 0.00 | 86 | 1013.1 |
| 20260507062542 | 16 | 315 | 1.6 | 8.0 | 0.00 | 0.00 | 0.00 | 87 | 1013.0 |
| 20260507062044 | 16 | 305 | 3.2 | 8.0 | 0.00 | 0.00 | 0.00 | 88 | 1013.0 |
| 20260507061555 | 16 | 290 | 4.8 | 8.0 | 0.00 | 0.00 | 0.00 | 89 | 1013.1 |
| 20260507061043 | 16 | 302 | 3.2 | 8.0 | 0.00 | 0.00 | 0.00 | 89 | 1013.2 |
| 20260507060541 | 15 | 302 | 3.2 | 9.7 | 0.00 | 0.00 | 0.00 | 89 | 1013.2 |
| 20260507060058 | 15 | 327 | 3.2 | 12.9 | 0.00 | 0.00 | 0.00 | 89 | 1013.1 |
| 20260507055542 | 15 | 332 | 6.4 | 14.5 | 0.00 | 0.00 | 0.00 | 89 | 1013.1 |
| 20260507055044 | 15 | 316 | 6.4 | 14.5 | 0.00 | 0.00 | 0.00 | 90 | 1013.1 |
| 20260507054552 | 15 | 313 | 6.4 | 12.9 | 0.00 | 0.00 | 0.00 | 90 | 1013.1 |
| 20260507054046 | 15 | 318 | 6.4 | 12.9 | 0.00 | 0.00 | 0.00 | 90 | 1013.0 |
| 20260507053546 | 15 | 309 | 6.4 | 17.7 | 0.00 | 0.00 | 0.00 | 90 | 1013.0 |
| 20260507053101 | 15 | 317 | 4.8 | 17.7 | 0.00 | 0.00 | 0.00 | 90 | 1012.9 |
| 20260507052545 | 15 | 327 | 8.0 | 17.7 | 0.00 | 0.00 | 0.00 | 90 | 1012.8 |
| 20260507052046 | 15 | 312 | 6.4 | 16.1 | 0.00 | 0.00 | 0.00 | 90 | 1012.8 |
| 20260507051549 | 15 | 306 | 6.4 | 17.7 | 0.00 | 0.00 | 0.00 | 90 | 1012.7 |
| 20260507051045 | 15 | 309 | 8.0 | 17.7 | 0.00 | 0.00 | 0.00 | 91 | 1012.6 |
| 20260507050547 | 15 | 306 | 9.7 | 17.7 | 0.00 | 0.00 | 0.00 | 91 | 1012.5 |
| 20260507050057 | 15 | 311 | 8.0 | 17.7 | 0.00 | 0.00 | 0.00 | 91 | 1012.4 |
| 20260507045549 | 15 | 315 | 9.7 | 20.9 | 0.00 | 0.00 | 0.00 | 91 | 1012.4 |
| 20260507045046 | 15 | 306 | 12.9 | 20.9 | 0.00 | 0.00 | 0.00 | 92 | 1012.3 |
| 20260507044558 | 15 | 308 | 11.3 | 20.9 | 0.00 | 0.00 | 0.00 | 92 | 1012.3 |
| 20260507044047 | 15 | 305 | 9.7 | 20.9 | 0.00 | 0.00 | 0.00 | 92 | 1012.1 |
| 20260507043545 | 15 | 306 | 11.3 | 20.9 | 0.00 | 0.00 | 0.00 | 92 | 1012.1 |
| 20260507043058 | 15 | 313 | 11.3 | 19.3 | 0.00 | 0.00 | 0.00 | 92 | 1011.9 |
| 20260507042546 | 15 | 292 | 12.9 | 19.3 | 0.00 | 0.00 | 0.00 | 92 | 1011.9 |
| 20260507042047 | 15 | 292 | 11.3 | 19.3 | 0.00 | 0.00 | 0.00 | 92 | 1011.8 |
| 20260507041600 | 15 | 313 | 9.7 | 16.1 | 0.00 | 0.00 | 0.00 | 91 | 1011.9 |
| 20260507041045 | 15 | 337 | 8.0 | 17.7 | 0.00 | 0.00 | 0.00 | 91 | 1011.7 |
| 20260507040549 | 15 | 324 | 6.4 | 17.7 | 0.00 | 0.00 | 0.00 | 91 | 1011.8 |
| 20260507040058 | 15 | 317 | 8.0 | 16.1 | 0.00 | 0.00 | 0.00 | 90 | 1011.6 |
| 20260507035545 | 15 | 313 | 8.0 | 16.1 | 0.00 | 0.00 | 0.00 | 90 | 1011.6 |
| 20260507035045 | 15 | 355 | 8.0 | 16.1 | 0.00 | 0.00 | 0.00 | 90 | 1011.6 |
| 20260507034608 | 15 | 315 | 6.4 | 16.1 | 0.00 | 0.00 | 0.00 | 90 | 1011.7 |
| 20260507034047 | 15 | 319 | 9.7 | 16.1 | 0.00 | 0.00 | 0.00 | 89 | 1011.6 |
| 20260507033546 | 15 | 322 | 9.7 | 16.1 | 0.00 | 0.00 | 0.00 | 89 | 1011.6 |
| 20260507033056 | 15 | 315 | 6.4 | 17.7 | 0.00 | 0.00 | 0.00 | 89 | 1011.7 |
| 20260507032545 | 15 | 311 | 9.7 | 19.3 | 0.00 | 0.00 | 0.00 | 88 | 1011.6 |
| 20260507032046 | 15 | 340 | 9.7 | 19.3 | 0.00 | 0.00 | 0.00 | 88 | 1011.5 |
| 20260507031558 | 15 | 313 | 9.7 | 24.1 | 0.00 | 0.00 | 0.00 | 87 | 1011.4 |
| 20260507031045 | 15 | 340 | 9.7 | 24.1 | 0.00 | 0.00 | 0.00 | 87 | 1011.3 |
| 20260507030548 | 15 | 296 | 8.0 | 17.7 | 0.00 | 0.00 | 0.00 | 86 | 1011.3 |
| 20260507030057 | 15 | 318 | 8.0 | 17.7 | 0.00 | 0.00 | 0.00 | 85 | 1011.2 |
| 20260507025547 | 15 | 341 | 8.0 | 17.7 | 0.00 | 0.00 | 0.00 | 85 | 1011.3 |
| 20260507025047 | 15 | 323 | 9.7 | 17.7 | 0.00 | 0.00 | 0.00 | 84 | 1011.1 |
| 20260507024557 | 15 | 5 | 8.0 | 17.7 | 0.00 | 0.00 | 0.00 | 83 | 1011.1 |
| 20260507024047 | 15 | 348 | 6.4 | 14.5 | 0.00 | 0.00 | 0.00 | 83 | 1011.0 |
| 20260507023546 | 16 | 339 | 8.0 | 16.1 | 0.00 | 0.00 | 0.00 | 82 | 1011.1 |
| 20260507023053 | 16 | 325 | 6.4 | 16.1 | 0.00 | 0.00 | 0.00 | 82 | 1011.0 |
| 20260507022546 | 16 | 328 | 8.0 | 16.1 | 0.00 | 0.00 | 0.00 | 81 | 1011.0 |
| 20260507022045 | 16 | 336 | 6.4 | 20.9 | 0.00 | 0.00 | 0.00 | 81 | 1011.0 |
| 20260507021557 | 16 | 311 | 4.8 | 20.9 | 0.00 | 0.00 | 0.00 | 80 | 1010.9 |
| 20260507021045 | 16 | 308 | 9.7 | 20.9 | 0.00 | 0.00 | 0.00 | 79 | 1010.9 |
| 20260507020546 | 16 | 332 | 9.7 | 17.7 | 0.00 | 0.00 | 0.00 | 79 | 1010.9 |
| 20260507020104 | 16 | 22 | 9.7 | 17.7 | 0.00 | 0.00 | 0.00 | 79 | 1010.8 |
| 20260507015545 | 16 | 330 | 8.0 | 17.7 | 0.00 | 0.00 | 0.00 | 78 | 1010.7 |
| 20260507015046 | 16 | 348 | 9.7 | 19.3 | 0.00 | 0.00 | 0.00 | 79 | 1010.6 |
| 20260507014556 | 16 | 345 | 8.0 | 19.3 | 0.00 | 0.00 | 0.00 | 79 | 1010.7 |
| 20260507014047 | 16 | 331 | 9.7 | 19.3 | 0.00 | 0.00 | 0.00 | 80 | 1010.7 |
| 20260507013545 | 16 | 324 | 11.3 | 19.3 | 0.00 | 0.00 | 0.00 | 82 | 1010.7 |
| 20260507013101 | 16 | 317 | 11.3 | 19.3 | 0.00 | 0.00 | 0.00 | 83 | 1010.7 |
| 20260507012545 | 16 | 317 | 9.7 | 19.3 | 0.00 | 0.00 | 0.00 | 84 | 1010.7 |
| 20260507012046 | 16 | 295 | 11.3 | 19.3 | 0.00 | 0.00 | 0.00 | 86 | 1010.7 |
| 20260507011555 | 15 | 301 | 9.7 | 16.1 | 0.00 | 0.00 | 0.00 | 88 | 1010.7 |
| 20260507011049 | 15 | 275 | 8.0 | 14.5 | 0.00 | 0.00 | 0.00 | 90 | 1010.7 |
| 20260507010547 | 15 | 312 | 6.4 | 14.5 | 0.00 | 0.00 | 0.00 | 90 | 1010.6 |
| 20260507010050 | 15 | 306 | 8.0 | 16.1 | 0.00 | 0.00 | 0.00 | 90 | 1010.5 |
| 20260507005546 | 15 | 311 | 9.7 | 16.1 | 0.00 | 0.00 | 0.00 | 89 | 1010.4 |
| 20260507005045 | 15 | 316 | 11.3 | 20.9 | 0.00 | 0.00 | 0.00 | 89 | 1010.5 |
| 20260507004559 | 15 | 315 | 9.7 | 20.9 | 0.00 | 0.00 | 0.00 | 89 | 1010.5 |
| 20260507004045 | 15 | 317 | 11.3 | 20.9 | 0.00 | 0.00 | 0.00 | 88 | 1010.5 |
| 20260507003550 | 15 | 321 | 11.3 | 20.9 | 0.00 | 0.00 | 0.00 | 87 | 1010.6 |
| 20260507003053 | 16 | 326 | 11.3 | 20.9 | 0.00 | 0.00 | 0.00 | 86 | 1010.6 |
| 20260507002545 | 16 | 343 | 11.3 | 17.7 | 0.00 | 0.00 | 0.00 | 85 | 1010.6 |
| 20260507002045 | 16 | 324 | 9.7 | 16.1 | 0.00 | 0.00 | 0.00 | 85 | 1010.6 |
| 20260507001550 | 16 | 319 | 8.0 | 14.5 | 0.00 | 0.00 | 0.00 | 85 | 1010.7 |
| 20260507001046 | 16 | 315 | 8.0 | 14.5 | 0.00 | 0.00 | 0.00 | 84 | 1010.8 |
| 20260507000549 | 16 | 333 | 8.0 | 14.5 | 0.00 | 0.00 | 0.00 | 84 | 1010.8 |
| 20260507000055 | 16 | 323 | 8.0 | 12.9 | 0.00 | 0.00 | 0.00 | 83 | 1010.8 |
| 20260506235546 | 16 | 335 | 6.4 | 9.7 | 0.00 | 0.00 | 0.00 | 83 | 1010.8 |
| 20260506235048 | 16 | 342 | 4.8 | 9.7 | 0.00 | 0.00 | 0.00 | 82 | 1010.9 |
| 20260506234556 | 16 | 341 | 4.8 | 9.7 | 0.00 | 0.00 | 0.00 | 82 | 1011.0 |
| 20260506234048 | 16 | 327 | 4.8 | 8.0 | 0.00 | 0.00 | 0.00 | 81 | 1011.1 |
| 20260506233546 | 16 | 343 | 1.6 | 8.0 | 0.00 | 0.00 | 0.00 | 80 | 1011.0 |
| 20260506233054 | 16 | 336 | 3.2 | 12.9 | 0.00 | 0.00 | 0.00 | 80 | 1011.1 |
| 20260506232546 | 16 | 355 | 4.8 | 12.9 | 0.00 | 0.00 | 0.00 | 79 | 1011.0 |
| 20260506232044 | 16 | 309 | 6.4 | 12.9 | 0.00 | 0.00 | 0.00 | 79 | 1011.0 |
| 20260506231550 | 16 | 314 | 4.8 | 12.9 | 0.00 | 0.00 | 0.00 | 79 | 1011.1 |
| 20260506231044 | 17 | 323 | 6.4 | 12.9 | 0.00 | 0.00 | 0.00 | 79 | 1011.0 |
| 20260506230543 | 16 | 313 | 3.2 | 9.7 | 0.00 | 0.00 | 0.00 | 80 | 1011.0 |
| 20260506230100 | 16 | 337 | 1.6 | 9.7 | 0.00 | 0.00 | 0.00 | 80 | 1011.0 |
| 20260506225545 | 16 | 328 | 4.8 | 9.7 | 0.00 | 0.00 | 0.00 | 81 | 1011.0 |
| 20260506225046 | 16 | 336 | 3.2 | 9.7 | 0.00 | 0.00 | 0.00 | 81 | 1011.0 |
| 20260506224600 | 16 | 315 | 4.8 | 14.5 | 0.00 | 0.00 | 0.00 | 81 | 1011.1 |
| 20260506224043 | 16 | 317 | 6.4 | 14.5 | 0.00 | 0.00 | 0.00 | 81 | 1011.1 |
| 20260506223544 | 16 | 327 | 6.4 | 12.9 | 0.00 | 0.00 | 0.00 | 82 | 1011.0 |
| 20260506223049 | 16 | 329 | 6.4 | 12.9 | 0.00 | 0.00 | 0.00 | 82 | 1011.1 |
| 20260506222545 | 16 | 294 | 6.4 | 16.1 | 0.00 | 0.00 | 0.00 | 82 | 1011.1 |
| 20260506222043 | 16 | 307 | 4.8 | 16.1 | 0.00 | 0.00 | 0.00 | 82 | 1011.0 |
| 20260506221547 | 16 | 286 | 9.7 | 16.1 | 0.00 | 0.00 | 0.00 | 83 | 1011.1 |
| 20260506221043 | 16 | 290 | 8.0 | 19.3 | 0.00 | 0.00 | 0.00 | 84 | 1010.9 |
| 20260506220544 | 16 | 308 | 11.3 | 19.3 | 0.00 | 0.00 | 0.00 | 85 | 1011.0 |
| 20260506220054 | 16 | 296 | 9.7 | 14.5 | 0.00 | 0.00 | 0.00 | 86 | 1011.0 |
| 20260506215543 | 16 | 277 | 4.8 | 11.3 | 0.00 | 0.00 | 0.00 | 86 | 1011.0 |
| 20260506215043 | 16 | 305 | 4.8 | 14.5 | 0.00 | 0.00 | 0.00 | 86 | 1011.1 |
| 20260506214607 | 16 | 317 | 6.4 | 14.5 | 0.00 | 0.00 | 0.00 | 86 | 1011.0 |
| 20260506214044 | 16 | 305 | 8.0 | 16.1 | 0.00 | 0.00 | 0.00 | 86 | 1011.0 |
| 20260506213544 | 16 | 308 | 9.7 | 16.1 | 0.00 | 0.00 | 0.00 | 86 | 1010.9 |
| 20260506213056 | 16 | 302 | 6.4 | 12.9 | 0.00 | 0.00 | 0.00 | 86 | 1011.0 |
| 20260506212544 | 16 | 324 | 8.0 | 16.1 | 0.00 | 0.00 | 0.00 | 86 | 1010.9 |
| 20260506212043 | 16 | 304 | 11.3 | 16.1 | 0.00 | 0.00 | 0.00 | 86 | 1011.0 |
| 20260506211551 | 16 | 311 | 6.4 | 14.5 | 0.00 | 0.00 | 0.00 | 86 | 1011.2 |
| 20260506211043 | 16 | 336 | 8.0 | 14.5 | 0.00 | 0.00 | 0.00 | 86 | 1011.1 |
| 20260506210543 | 16 | 329 | 6.4 | 12.9 | 0.00 | 0.00 | 0.00 | 85 | 1011.3 |
| 20260506210054 | 16 | 321 | 6.4 | 12.9 | 0.00 | 0.00 | 0.00 | 85 | 1011.2 |
| 20260506205543 | 16 | 312 | 4.8 | 11.3 | 0.00 | 0.00 | 0.00 | 85 | 1011.4 |
| 20260506205043 | 16 | 275 | 3.2 | 12.9 | 0.00 | 0.00 | 0.00 | 85 | 1011.3 |
| 20260506204604 | 16 | 295 | 4.8 | 12.9 | 0.00 | 0.00 | 0.00 | 86 | 1011.4 |
| 20260506204043 | 16 | 303 | 9.7 | 12.9 | 0.00 | 0.00 | 0.00 | 86 | 1011.3 |
| 20260506203544 | 16 | 296 | 4.8 | 11.3 | 0.00 | 0.00 | 0.00 | 87 | 1011.4 |
| 20260506203055 | 16 | 296 | 3.2 | 12.9 | 0.00 | 0.00 | 0.00 | 87 | 1011.5 |
| 20260506202545 | 16 | 296 | 6.4 | 17.7 | 0.00 | 0.00 | 0.00 | 87 | 1011.3 |
| 20260506202046 | 16 | 314 | 6.4 | 17.7 | 0.00 | 0.00 | 0.00 | 87 | 1011.2 |
| 20260506201551 | 16 | 323 | 12.9 | 17.7 | 0.00 | 0.00 | 0.00 | 87 | 1011.2 |
| 20260506201045 | 16 | 321 | 11.3 | 16.1 | 0.00 | 0.00 | 0.00 | 88 | 1011.1 |
| 20260506200546 | 16 | 311 | 4.8 | 12.9 | 0.00 | 0.00 | 0.00 | 88 | 1011.1 |
| 20260506200054 | 16 | 317 | 8.0 | 12.9 | 0.00 | 0.00 | 0.00 | 88 | 1011.1 |
| 20260506195542 | 16 | 313 | 6.4 | 12.9 | 0.00 | 0.00 | 0.00 | 88 | 1011.1 |
| 20260506195046 | 16 | 309 | 8.0 | 14.5 | 0.00 | 0.00 | 0.00 | 88 | 1011.1 |
| 20260506194603 | 16 | 317 | 8.0 | 14.5 | 0.00 | 0.00 | 0.00 | 88 | 1011.0 |
| 20260506194049 | 16 | 344 | 6.4 | 12.9 | 0.00 | 0.00 | 0.00 | 88 | 1011.1 |
| 20260506193545 | 16 | 336 | 3.2 | 8.0 | 0.00 | 0.00 | 0.00 | 88 | 1011.0 |
| 20260506193057 | 16 | 336 | 3.2 | 8.0 | 0.00 | 0.00 | 0.00 | 88 | 1011.2 |
| 20260506192545 | 16 | 336 | 4.8 | 14.5 | 0.00 | 0.00 | 0.00 | 88 | 1011.0 |
| 20260506192044 | 16 | 317 | 6.4 | 14.5 | 0.00 | 0.00 | 0.00 | 88 | 1011.0 |
| 20260506191555 | 16 | 306 | 9.7 | 16.1 | 0.00 | 0.00 | 0.00 | 88 | 1010.8 |
| 20260506191044 | 16 | 317 | 8.0 | 16.1 | 0.00 | 0.00 | 0.00 | 88 | 1010.8 |
| 20260506190544 | 16 | 312 | 11.3 | 16.1 | 0.00 | 0.00 | 0.00 | 88 | 1010.7 |
| 20260506190049 | 16 | 302 | 6.4 | 12.9 | 0.00 | 0.00 | 0.00 | 88 | 1010.7 |
| 20260506185543 | 16 | 327 | 4.8 | 14.5 | 0.00 | 0.00 | 0.00 | 89 | 1010.8 |
| 20260506185045 | 16 | 331 | 8.0 | 14.5 | 0.00 | 0.00 | 0.00 | 89 | 1010.7 |
| 20260506184553 | 16 | 311 | 9.7 | 14.5 | 0.00 | 0.00 | 0.00 | 89 | 1010.6 |
| 20260506184045 | 16 | 317 | 6.4 | 12.9 | 0.00 | 0.00 | 0.00 | 89 | 1010.6 |
| 20260506183546 | 16 | 336 | 3.2 | 9.7 | 0.00 | 0.00 | 0.00 | 89 | 1010.6 |
| 20260506183059 | 16 | 355 | 6.4 | 9.7 | 0.00 | 0.00 | 0.00 | 89 | 1010.6 |
| 20260506182545 | 16 | 351 | 6.4 | 9.7 | 0.00 | 0.00 | 0.00 | 89 | 1010.6 |
| 20260506182045 | 16 | 340 | 3.2 | 9.7 | 0.00 | 0.00 | 0.00 | 89 | 1010.5 |
| 20260506181552 | 16 | 340 | 3.2 | 9.7 | 0.00 | 0.00 | 0.00 | 89 | 1010.6 |
| 20260506181042 | 16 | 349 | 6.4 | 12.9 | 0.00 | 0.00 | 0.00 | 88 | 1010.5 |
| 20260506180545 | 16 | 331 | 6.4 | 12.9 | 0.00 | 0.00 | 0.00 | 88 | 1010.6 |
| 20260506180052 | 16 | 337 | 8.0 | 12.9 | 0.00 | 0.00 | 0.00 | 87 | 1010.6 |
| 20260506175545 | 16 | 331 | 4.8 | 9.7 | 0.00 | 0.00 | 0.00 | 87 | 1010.4 |
| 20260506175047 | 16 | 338 | 3.2 | 9.7 | 0.00 | 0.00 | 0.00 | 87 | 1010.5 |
| 20260506174548 | 16 | 346 | 4.8 | 9.7 | 0.00 | 0.00 | 0.00 | 86 | 1010.5 |
| 20260506174048 | 16 | 5 | 4.8 | 12.9 | 0.00 | 0.00 | 0.00 | 86 | 1010.5 |
| 20260506173548 | 16 | 355 | 4.8 | 12.9 | 0.00 | 0.00 | 0.00 | 86 | 1010.4 |
| 20260506173059 | 16 | 346 | 4.8 | 9.7 | 0.00 | 0.00 | 0.00 | 86 | 1010.4 |
| 20260506172542 | 16 | 340 | 3.2 | 9.7 | 0.00 | 0.00 | 0.00 | 86 | 1010.6 |
| 20260506172045 | 16 | 327 | 4.8 | 12.9 | 0.00 | 0.00 | 0.00 | 86 | 1010.5 |
| 20260506171556 | 16 | 344 | 4.8 | 12.9 | 0.00 | 0.00 | 0.00 | 86 | 1010.3 |
| 20260506171045 | 16 | 26 | 4.8 | 12.9 | 0.00 | 0.00 | 0.00 | 85 | 1010.4 |
| 20260506170544 | 17 | 5 | 1.6 | 8.0 | 0.00 | 0.00 | 0.00 | 85 | 1010.4 |
| 20260506170056 | 17 | 0 | 3.2 | 8.0 | 0.00 | 0.00 | 0.00 | 84 | 1010.3 |
| 20260506165543 | 17 | 25 | 4.8 | 9.7 | 0.00 | 0.00 | 0.00 | 82 | 1010.3 |
| 20260506165043 | 17 | 19 | 1.6 | 11.3 | 0.00 | 0.00 | 0.00 | 81 | 1010.4 |
| 20260506164558 | 17 | 44 | 3.2 | 12.9 | 0.00 | 0.00 | 0.00 | 81 | 1010.5 |
| 20260506164042 | 17 | 99 | 3.2 | 12.9 | 0.00 | 0.00 | 0.00 | 81 | 1010.6 |
| 20260506163542 | 17 | 82 | 1.6 | 11.3 | 0.00 | 0.00 | 0.00 | 80 | 1010.5 |
| 20260506163103 | 18 | 95 | 3.2 | 9.7 | 0.00 | 0.00 | 0.00 | 79 | 1010.4 |
| 20260506162542 | 17 | 50 | 1.6 | 11.3 | 0.00 | 0.00 | 0.00 | 79 | 1010.5 |
| 20260506162047 | 18 | 0 | 1.6 | 11.3 | 0.00 | 0.00 | 0.00 | 78 | 1010.6 |
| 20260506161605 | 18 | 104 | 3.2 | 16.1 | 0.00 | 0.00 | 0.00 | 77 | 1010.5 |
| 20260506161045 | 18 | 86 | 4.8 | 17.7 | 0.00 | 0.00 | 0.00 | 76 | 1010.4 |
| 20260506160545 | 18 | 105 | 4.8 | 17.7 | 0.00 | 0.00 | 0.00 | 78 | 1010.4 |
| 20260506160055 | 18 | 123 | 6.4 | 17.7 | 0.00 | 0.00 | 0.00 | 77 | 1010.4 |
| 20260506155545 | 18 | 0 | 8.0 | 17.7 | 0.00 | 0.00 | 0.00 | 76 | 1010.6 |
| 20260506155043 | 18 | 93 | 4.8 | 17.7 | 0.00 | 0.00 | 0.00 | 75 | 1010.5 |
| 20260506154611 | 18 | 91 | 6.4 | 20.9 | 0.00 | 0.00 | 0.00 | 72 | 1010.6 |
| 20260506154043 | 18 | 104 | 8.0 | 20.9 | 0.00 | 0.00 | 0.00 | 70 | 1010.6 |
| 20260506153542 | 18 | 106 | 11.3 | 22.5 | 0.00 | 0.00 | 0.00 | 69 | 1010.4 |
| 20260506153050 | 18 | 133 | 11.3 | 22.5 | 0.00 | 0.00 | 0.00 | 69 | 1010.3 |
| 20260506152545 | 18 | 127 | 9.7 | 24.1 | 0.00 | 0.00 | 0.00 | 70 | 1010.3 |
| 20260506152043 | 18 | 94 | 9.7 | 27.4 | 0.00 | 0.00 | 0.00 | 70 | 1010.4 |
| 20260506151554 | 18 | 141 | 12.9 | 27.4 | 0.00 | 0.00 | 0.00 | 71 | 1010.4 |
| 20260506151045 | 18 | 115 | 14.5 | 25.7 | 0.00 | 0.00 | 0.00 | 71 | 1010.4 |
| 20260506150547 | 18 | 141 | 12.9 | 22.5 | 0.00 | 0.00 | 0.00 | 71 | 1010.6 |
| 20260506150054 | 18 | 126 | 11.3 | 19.3 | 0.00 | 0.00 | 0.00 | 74 | 1010.7 |
| 20260506145547 | 18 | 96 | 9.7 | 19.3 | 0.00 | 0.00 | 0.00 | 74 | 1010.4 |
| 20260506145043 | 18 | 133 | 8.0 | 17.7 | 0.00 | 0.00 | 0.00 | 74 | 1010.5 |
| 20260506144601 | 18 | 110 | 6.4 | 19.3 | 0.00 | 0.00 | 0.00 | 74 | 1010.6 |
| 20260506144044 | 18 | 126 | 9.7 | 20.9 | 0.00 | 0.00 | 0.00 | 73 | 1010.6 |
| 20260506143543 | 17 | 115 | 9.7 | 20.9 | 0.00 | 0.00 | 0.00 | 74 | 1010.7 |
| 20260506143049 | 17 | 103 | 12.9 | 20.9 | 0.00 | 0.00 | 0.00 | 73 | 1010.4 |
| 20260506142542 | 17 | 89 | 11.3 | 22.5 | 0.00 | 0.00 | 0.00 | 73 | 1010.3 |
| 20260506142042 | 18 | 133 | 11.3 | 22.5 | 0.00 | 0.00 | 0.00 | 72 | 1010.2 |
| 20260506141557 | 18 | 99 | 9.7 | 24.1 | 0.00 | 0.00 | 0.00 | 73 | 1010.4 |
| 20260506141043 | 18 | 100 | 11.3 | 24.1 | 0.00 | 0.00 | 0.00 | 73 | 1010.4 |
| 20260506140543 | 18 | 126 | 9.7 | 19.3 | 0.00 | 0.00 | 0.00 | 74 | 1010.4 |
| 20260506140109 | 18 | 114 | 8.0 | 19.3 | 0.00 | 0.00 | 0.00 | 73 | 1010.4 |
| 20260506135542 | 18 | 109 | 6.4 | 19.3 | 0.00 | 0.00 | 0.00 | 72 | 1010.6 |
| 20260506135046 | 18 | 127 | 8.0 | 17.7 | 0.00 | 0.00 | 0.00 | 72 | 1010.6 |
| 20260506134602 | 18 | 96 | 6.4 | 17.7 | 0.00 | 0.00 | 0.00 | 70 | 1010.7 |
| 20260506134045 | 18 | 109 | 6.4 | 17.7 | 0.00 | 0.00 | 0.00 | 70 | 1010.8 |
| 20260506133545 | 19 | 99 | 4.8 | 17.7 | 0.00 | 0.00 | 0.00 | 70 | 1011.0 |
| 20260506133103 | 19 | 135 | 4.8 | 16.1 | 0.00 | 0.00 | 0.00 | 69 | 1010.9 |
| 20260506132545 | 19 | 81 | 4.8 | 14.5 | 0.00 | 0.00 | 0.00 | 69 | 1011.1 |
| 20260506132044 | 19 | 92 | 4.8 | 12.9 | 0.00 | 0.00 | 0.00 | 69 | 1011.1 |
| 20260506131557 | 19 | 92 | 4.8 | 12.9 | 0.00 | 0.00 | 0.00 | 70 | 1011.1 |
| 20260506131045 | 18 | 132 | 3.2 | 12.9 | 0.00 | 0.00 | 0.00 | 73 | 1011.1 |
| 20260506130546 | 19 | 111 | 3.2 | 12.9 | 0.00 | 0.00 | 0.00 | 73 | 1011.1 |
| 20260506130059 | 18 | 110 | 3.2 | 12.9 | 0.00 | 0.00 | 0.00 | 76 | 1011.0 |
| 20260506125542 | 20 | 106 | 0.0 | 11.3 | 0.00 | 0.00 | 0.00 | 75 | 1011.2 |
| 20260506125045 | 19 | 96 | 1.6 | 11.3 | 0.00 | 0.00 | 0.00 | 75 | 1011.3 |
| 20260506124555 | 18 | 92 | 3.2 | 11.3 | 0.00 | 0.00 | 0.00 | 77 | 1011.3 |
| 20260506124045 | 18 | 103 | 3.2 | 11.3 | 0.00 | 0.00 | 0.00 | 76 | 1011.2 |
| 20260506123546 | 19 | 0 | 1.6 | 9.7 | 0.00 | 0.00 | 0.00 | 72 | 1011.2 |
| 20260506123100 | 19 | 0 | 3.2 | 9.7 | 0.00 | 0.00 | 0.00 | 72 | 1011.2 |
| 20260506122546 | 20 | 95 | 1.6 | 11.3 | 0.00 | 0.00 | 0.00 | 72 | 1011.2 |
| 20260506122045 | 19 | 140 | 1.6 | 11.3 | 0.00 | 0.00 | 0.00 | 77 | 1011.3 |
| 20260506121557 | 19 | 111 | 1.6 | 11.3 | 0.00 | 0.00 | 0.00 | 75 | 1011.2 |
| 20260506121045 | 19 | 0 | 1.6 | 12.9 | 0.00 | 0.00 | 0.00 | 77 | 1011.3 |
| 20260506120545 | 18 | 142 | 3.2 | 12.9 | 0.00 | 0.00 | 0.00 | 81 | 1011.3 |